sat.trackr.live / text

‹ back to catalog

STARLINK-33548

NORAD 62280 · 2024-237P

PAYLOAD ACTIVE UNKNOWN

§ Identity

Operator
Country
US
Launch date
2024-12-08
Launch site
AFETR
Launch vehicle
Mass (kg)
RCS (m²)

Purposes: comms

External: N2YO · Heavens-Above · Gunter

§ Orbital elements

Epoch: 2026-05-25T05:34:33.900384Z

Period
94.27 min
Inclination
42.9993°
Eccentricity
0.0001061
Mean motion
15.27595822 rev/d
Perigee alt
482.3 km
Apogee alt
483.7 km
Semi-major
6,861.1 km
B*
6.5226e-4
RAAN
133.2290°
Arg perigee
264.4808°
Mean anomaly
95.5922°
Rev number
8,302

§ Raw data

STARLINK-335481 62280U 24237P   26145.23233681  .00017738  00000+0  65226-3 0  99912 62280  42.9993 133.2290 0001061 264.4808  95.5922 15.27595822 83027

JSON: /api/v1/satellites/62280 · /tle

For live sub-satellite position, see the globe view (requires WebGL).

§ Visibility from observer

Set your observer location to see the next 7 days of passes ≥ 10°. The values pass through the URL so the page stays shareable.

No JS? Fill the form by hand. The geolocation button needs JavaScript.